N4363R KADG-KDTW

Flight info

Callsign N4363R
Flight time N/A
Altitude 2500
Route VFR NE
Aircraft C172/L-DOV/C

Departure

Time 2026-04-25 15:05
Airport Lenawee County Airport (KADG)

Arrival

Time N/A
Airport Detroit Metropolitan Wayne County Airport (KDTW)
Time Latitude Longitude Altitude Speed Heading
2026-04-25 14:56 41.87078 -84.07146 796 ft 0 kts 227°
2026-04-25 15:04 41.87072 -84.07156 796 ft 13 kts 230°
2026-04-25 15:04 41.86882 -84.07434 796 ft 66 kts 227°
2026-04-25 15:04 41.86475 -84.07918 958 ft 78 kts 220°
2026-04-25 15:05 41.86043 -84.08363 1139 ft 80 kts 227°
2026-04-25 15:05 41.85577 -84.08775 1327 ft 83 kts 220°
2026-04-25 15:05 41.85234 -84.09315 1502 ft 72 kts 265°
2026-04-25 15:06 41.85509 -84.10250 1921 ft 54 kts 344°
2026-04-25 15:06 41.85881 -84.10164 2107 ft 60 kts 16°
2026-04-25 15:06 41.86223 -84.09703 2242 ft 77 kts 47°
2026-04-25 15:06 41.86471 -84.09068 2375 ft 84 kts 50°
2026-04-25 15:07 41.86705 -84.08345 2458 ft 88 kts 56°
2026-04-25 15:07 41.86955 -84.07591 2537 ft 88 kts 53°
2026-04-25 15:07 41.87225 -84.06817 2557 ft 93 kts 53°
2026-04-25 15:07 41.87480 -84.06139 2633 ft 89 kts 51°
2026-04-25 15:08 41.87773 -84.05382 2679 ft 89 kts 46°
2026-04-25 15:08 41.88133 -84.04744 2778 ft 82 kts 40°
2026-04-25 15:08 41.88396 -84.04005 2795 ft 94 kts 58°
2026-04-25 15:08 41.88543 -84.03262 2780 ft 98 kts 62°
2026-04-25 15:09 41.88831 -84.02412 2780 ft 90 kts 40°
2026-04-25 15:09 41.89215 -84.01677 2628 ft 107 kts 60°
2026-04-25 15:09 41.89302 -83.99766 2613 ft 105 kts 66°
2026-04-25 15:10 41.89217 -83.98746 2519 ft 127 kts 114°
2026-04-25 15:10 41.89083 -83.97687 2404 ft 111 kts 68°
2026-04-25 15:10 41.89434 -83.95901 2416 ft 105 kts 58°
2026-04-25 15:11 41.89673 -83.95029 2467 ft 95 kts 48°
2026-04-25 15:11 41.90162 -83.94499 2347 ft 92 kts
2026-04-25 15:11 41.90722 -83.94765 2274 ft 94 kts 313°
2026-04-25 15:12 41.90469 -83.96438 2210 ft 121 kts 223°
2026-04-25 15:12 41.89624 -83.96664 2154 ft 129 kts 170°
2026-04-25 15:12 41.88892 -83.96064 2117 ft 124 kts 118°
2026-04-25 15:12 41.88761 -83.95727 2093 ft 121 kts 103°
2026-04-25 15:13 41.88860 -83.94278 2203 ft 93 kts 51°
2026-04-25 15:13 41.89825 -83.93507 2234 ft 80 kts 339°
2026-04-25 15:13 41.90239 -83.93916 2289 ft 78 kts 316°
2026-04-25 15:14 41.90342 -83.94695 2309 ft 93 kts 272°
2026-04-25 15:14 41.90159 -83.95541 2362 ft 100 kts 249°
2026-04-25 15:14 41.89584 -83.96149 2381 ft 113 kts 211°
2026-04-25 15:14 41.88815 -83.96289 2391 ft 121 kts 165°
2026-04-25 15:15 41.88248 -83.95548 2304 ft 115 kts 90°
2026-04-25 15:15 41.88431 -83.94697 2429 ft 82 kts 30°
2026-04-25 15:15 41.88936 -83.94482 2443 ft 78 kts 358°